x

Edisto - 41 Nm Southeast Of Charleston, Sc (41004) Wave Buoy

2:50pm - Mon 15th Oct 2018 All times are EDT. -4 hours from GMT.

  • Sig Wave height 2.6ft
  • Swell Direction
  • Peak Period 8s
  • Average Period 5s
  • Wind
    9mph, 11mph gusts
  • Sea Temp 82°f
  • Air Temp 81°f
  • Sea Pressure 1020.4mb
  • Edisto - 41 Nm Southeast Of Charleston, Sc
  • Edisto - 41 Nm Southeast Of Charleston, Sc

More Historic Weather Station data

Upgrade to MSW Pro to gain access to the past 30 days of data for over 8000 Wavebouys and Weather Stations around the globe.

Join

Comparision Forecast

View Surf forecast
   
Mon 10/15 2:50pm 2.5ft 8s 5s 9 11 mph 1020.4mb 82f 81f
2:40pm  -   -   -  9 11 mph 1020.4mb 82f 81f
2:30pm  -   -   -  11 13 mph 1020.4mb 82f 81f
2:20pm  -   -   -  9 11 mph 1020.6mb 82f 81f
2:10pm  -   -   -  9 11 mph 1020.8mb 82f 81f
2:00pm  -   -   -  9 13 mph 1021mb 82f -
1:50pm 2.5ft 6s 5s 9 11 mph 1021.1mb 81f 81f
1:40pm  -   -   -  9 11 mph 1021.2mb 81f 81f
1:30pm  -   -   -  9 11 mph 1021.2mb 81f 81f
1:20pm  -   -   -  9 13 mph 1021.4mb 81f 81f
1:10pm  -   -   -  11 13 mph 1021.4mb 81f 81f
1:00pm  -   -   -  11 13 mph 1021.5mb 81f 81f
12:50pm 2.5ft 5s 4s 11 13 mph 1021.6mb 81f 81f
12:40pm  -   -   -  11 13 mph 1021.8mb 81f 81f
12:30pm  -   -   -  11 13 mph 1021.7mb 81f 81f
12:20pm  -   -   -  11 13 mph 1021.8mb 81f 81f
12:10pm  -   -   -  11 13 mph 1021.9mb 81f 81f
12:00pm  -   -   -  11 13 mph 1022mb 81f 81f
11:50am 2.5ft 5s 4s 11 13 mph 1022mb 81f 81f
11:40am  -   -   -  11 16 mph 1022.2mb 81f 81f
11:30am  -   -   -  11 13 mph 1022.2mb 81f 81f
11:20am  -   -   -  11 16 mph 1022mb 81f 81f
11:10am  -   -   -  11 16 mph 1022.1mb - 81f
11:00am  -   -   -  13 16 mph 1022mb - 81f
10:50am 2.5ft 5s 4s 11 16 mph 1022.1mb 81f 81f
10:40am 2.5ft  -  4s 13 16 mph 1022.2mb 81f 81f
10:30am  -   -   -  13 16 mph 1022.2mb 81f 81f
10:20am  -   -   -  13 16 mph 1022.2mb 81f 81f
10:10am  -   -   -  11 13 mph 1022.2mb 81f 81f
10:00am  -   -   -  13 16 mph 1022.2mb 81f 81f
9:50am 3ft 5s 4s 11 13 mph 1022.2mb - 81f
9:40am  -   -   -  13 16 mph 1022.1mb 81f 81f
9:30am  -   -   -  13 16 mph 1022.1mb 81f 81f
9:20am  -   -   -  11 16 mph 1022.1mb 81f 81f
9:10am  -   -   -  11 18 mph 1022.3mb 81f 81f
9:00am  -   -   -  11 13 mph 1022.2mb 81f 81f
8:50am 3ft 5s 4s 11 13 mph 1022.2mb 81f 81f
8:40am  -   -   -  11 13 mph 1021.9mb 81f 81f
8:30am  -   -   -  11 13 mph 1021.9mb 81f 81f
8:20am  -   -   -  11 13 mph 1021.9mb 81f 81f
8:10am  -   -   -  11 13 mph 1021.8mb 81f 81f
8:00am  -   -   -  11 13 mph 1021.9mb 81f 81f
7:50am 3.5ft 5s 4s 11 13 mph 1021.8mb 81f 81f
7:40am 3.5ft  -  4s 11 13 mph 1021.6mb 81f 81f
7:30am  -   -   -  11 13 mph 1021.6mb 81f 80f
7:20am  -   -   -  11 13 mph 1021.6mb 81f 80f
7:10am  -   -   -  11 13 mph 1021.5mb 81f 80f
7:00am  -   -   -  11 16 mph 1021.6mb 81f 80f
6:50am 3ft 5s 4s 11 16 mph 1021.6mb 81f 80f
6:40am  -   -   -  13 16 mph 1021.5mb 81f 80f
6:30am  -   -   -  13 16 mph 1021.3mb 81f 80f
6:20am  -   -   -  13 16 mph 1021.1mb 81f 80f
6:10am  -   -   -  13 16 mph 1021mb 81f 80f
6:00am  -   -   -  13 16 mph 1020.8mb 81f 80f
5:50am 3.5ft 5s 4s 13 16 mph 1020.7mb 81f 80f
5:40am  -   -   -  13 16 mph 1020.7mb 81f 80f
5:30am  -   -   -  11 16 mph 1020.6mb 81f 80f
5:20am  -   -   -  13 16 mph 1020.6mb 81f 80f
5:10am  -   -   -  11 16 mph 1020.6mb 81f 80f
5:00am  -   -   -  11 13 mph 1020.6mb 81f 80f
4:20am  -   -   -  11 16 mph 1020.9mb 81f 80f
4:10am  -   -   -  11 16 mph 1020.8mb 81f 80f
4:00am  -   -   -  11 16 mph 1020.8mb 81f 80f
3:50am 3.5ft 5s 4s 13 16 mph 1020.8mb 81f 80f
3:40am  -   -   -  13 16 mph 1020.7mb 81f 80f
3:30am  -   -   -  13 16 mph 1020.7mb 81f 81f
3:20am  -   -   -  13 18 mph 1020.8mb 81f 81f
3:10am  -   -   -  13 18 mph 1020.8mb 81f 81f
3:00am  -   -   -  16 18 mph 1020.8mb 81f 81f
2:20am  -   -   -  16 20 mph 1020.6mb 81f 81f
2:10am  -   -   -  16 18 mph 1020.6mb 81f 81f
2:00am  -   -   -  16 20 mph 1020.6mb 81f -
1:50am 2.5ft 3s 4s 13 18 mph 1020.7mb 81f 81f
1:40am  -   -   -  13 16 mph 1020.8mb 81f 81f
1:30am  -   -   -  13 18 mph 1020.7mb 81f 81f
1:20am  -   -   -  13 18 mph 1020.7mb 81f 81f
1:10am  -   -   -  13 16 mph 1020.8mb 81f 81f
1:00am  -   -   -  13 18 mph 1020.7mb 81f 81f
12:50am 2.5ft 9s 4s 13 16 mph 1020.7mb 81f 81f
12:40am 2.5ft  -  4s 13 16 mph 1020.9mb 81f 81f
12:30am  -   -   -  13 16 mph 1020.8mb 81f 81f
12:20am  -   -   -  13 16 mph 1020.9mb 81f 81f
12:10am  -   -   -  13 18 mph 1021mb - 81f
12:00am  -   -   -  13 16 mph 1021mb 81f 81f
Sun 10/14 11:20pm  -   -   -  9 13 mph 1021.2mb 81f 81f
11:10pm  -   -   -  4 9 mph 1021.1mb 81f 80f
11:00pm  -   -   -  7 9 mph 1021.1mb 81f 80f
10:20pm  -   -   -  4 7 mph 1021.3mb - 80f
10:10pm  -   -   -  4 7 mph 1021.3mb 81f 80f
10:00pm  -   -   -  4 7 mph 1021.4mb 81f 80f
9:50pm 2ft 9s 5s 4 7 mph 1021.2mb - 80f
9:40pm  -   -   -  7 9 mph 1021.1mb 81f 80f
9:30pm 2ft  -  5s 7 9 mph 1021.1mb 81f 80f
9:20pm  -   -   -  4 9 mph 1020.9mb 82f 80f
9:10pm  -   -   -  4 9 mph 1021mb 82f 80f
9:00pm  -   -   -  7 9 mph 1020.9mb 82f 80f
8:50pm 2ft 9s 5s 7 9 mph 1020.8mb 82f 80f
8:40pm 2ft  -  5s 7 9 mph 1020.7mb 82f 80f
8:30pm  -   -   -  7 9 mph 1020.5mb 82f 80f
8:20pm  -   -   -  7 11 mph 1020.4mb 82f 80f
8:10pm  -   -   -  7 7 mph 1020.3mb 82f 80f
8:00pm  -   -   -  7 9 mph 1020.3mb 82f 80f
7:50pm 2ft 9s 5s 7 9 mph 1020.2mb 82f 80f
7:40pm 2ft  -  5s 7 9 mph 1020.2mb 82f 80f
7:30pm  -   -   -  7 9 mph 1020.1mb 82f 80f
7:20pm  -   -   -  7 9 mph 1020.1mb 82f 80f
7:10pm  -   -   -  7 9 mph 1020mb 82f 80f
7:00pm  -   -   -  7 9 mph 1020mb - 80f
6:50pm 2ft 9s 5s 7 9 mph 1019.9mb 82f 80f
6:40pm 2ft  -  5s 9 11 mph 1019.9mb 82f 80f
6:30pm  -   -   -  7 11 mph 1019.8mb 82f 80f
6:20pm  -   -   -  7 9 mph 1019.8mb 82f 80f
6:10pm  -   -   -  7 9 mph 1019.7mb 82f 80f
6:00pm  -   -   -  7 9 mph 1019.7mb 82f 80f
5:50pm 2ft 10s 5s 7 9 mph 1019.7mb 82f 80f
5:40pm  -   -   -  7 11 mph 1019.6mb 82f 80f
5:30pm  -   -   -  7 11 mph 1019.6mb 82f 80f
5:20pm  -   -   -  9 9 mph 1019.7mb 82f 80f
5:10pm  -   -   -  7 11 mph 1019.7mb 82f 80f
5:00pm  -   -   -  7 11 mph 1019.8mb - 80f
4:50pm 2ft 10s 5s 9 11 mph 1019.7mb 82f 80f
4:40pm 2ft  -  5s 9 11 mph 1019.6mb 82f 80f
4:30pm  -   -   -  9 11 mph 1019.6mb 82f 80f
4:20pm  -   -   -  9 11 mph 1019.7mb 82f 80f
4:10pm  -   -   -  9 11 mph 1019.6mb - 80f
4:00pm  -   -   -  9 9 mph 1019.5mb 82f 80f
3:50pm 2ft 8s 5s 9 11 mph 1019.6mb 82f 80f
3:40pm  -   -   -  7 11 mph 1019.6mb 82f 80f
3:30pm  -   -   -  7 11 mph 1019.5mb 82f 80f
3:20pm  -   -   -  7 9 mph 1019.5mb 82f 80f
3:10pm  -   -   -  7 9 mph 1019.7mb 82f 80f
3:00pm  -   -   -  7 9 mph 1019.8mb - 80f
2:50pm 2ft 10s 5s 7 9 mph 1019.8mb 82f 80f
2:40pm  -   -   -  7 9 mph 1019.8mb 82f 80f
2:30pm  -   -   -  4 9 mph 1019.8mb 82f 80f
2:20pm  -   -   -  7 9 mph 1019.8mb 82f 80f
2:10pm  -   -   -  4 7 mph 1019.9mb 82f 80f
2:00pm  -   -   -  4 7 mph 1020mb 82f 80f
1:50pm 2ft 10s 5s 4 7 mph 1020mb 82f 80f
1:40pm 2ft  -  5s 4 7 mph 1020.1mb 82f 80f
1:30pm  -   -   -  4 7 mph 1020.1mb - 80f
1:20pm  -   -   -  4 7 mph 1020.2mb 82f 80f
1:10pm  -   -   -  4 7 mph 1020.2mb 82f 80f
1:00pm  -   -   -  4 9 mph 1020.2mb 82f 80f
12:50pm 2ft 10s 5s 7 9 mph 1020.3mb 82f 80f
12:40pm  -   -   -  7 9 mph 1020.3mb 82f 80f
12:30pm  -   -   -  4 7 mph 1020.3mb 82f -
12:20pm  -   -   -  4 7 mph 1020.4mb 82f 80f
12:10pm  -   -   -  4 7 mph 1020.4mb 82f 80f
12:00pm  -   -   -  4 7 mph 1020.4mb 82f 80f
11:50am 2ft 10s 5s 4 9 mph 1020.5mb 82f 80f
11:40am  -   -   -  4 7 mph 1020.5mb 82f 80f
11:30am  -   -   -  4 7 mph 1020.5mb 82f 80f
11:20am  -   -   -  4 4 mph 1020.6mb 82f 80f
11:10am  -   -   -  4 7 mph 1020.6mb 82f 80f
11:00am  -   -   -  4 7 mph 1020.6mb 82f -
10:50am 2.5ft 10s 5s 4 7 mph 1020.5mb 81f 80f
10:40am  -   -   -  4 7 mph 1020.4mb 81f 80f
10:30am  -   -   -  2 4 mph 1020.4mb 81f 80f
10:20am  -   -   -  2 4 mph 1020.3mb 81f 80f
10:10am  -   -   -  2 4 mph 1020.4mb 81f 80f
10:00am  -   -   -  2 4 mph 1020.3mb 81f 80f
9:10am  -   -   -  2 4 mph 1019.8mb 81f 80f
9:00am  -   -   -  4 7 mph 1019.6mb 81f 80f
8:50am 2.5ft 10s 5s 4 7 mph 1019.4mb 81f 80f
8:40am  -   -   -  4 7 mph 1019.3mb 81f 80f
8:30am  -   -   -  4 9 mph 1019.2mb - 79f
8:20am  -   -   -  7 9 mph 1019.1mb 81f 79f
8:10am  -   -   -  4 9 mph 1018.9mb 81f 79f
8:00am  -   -   -  7 11 mph 1018.9mb 81f 79f
7:50am 2.5ft 10s 6s 7 9 mph 1018.6mb 81f 78f
7:40am  -   -   -  4 7 mph 1018.6mb 81f 78f
7:30am  -   -   -  7 9 mph 1018.6mb 81f 78f
7:20am  -   -   -  7 9 mph 1018.6mb 81f 78f
7:10am  -   -   -  7 9 mph 1018.4mb 81f 78f
7:00am  -   -   -  7 9 mph 1018.2mb 81f 78f
6:20am  -   -   -  9 11 mph 1018.1mb 81f 78f
6:10am  -   -   -  9 13 mph 1017.9mb 81f 78f
6:00am  -   -   -  9 13 mph 1017.8mb 81f 78f
4:50am 1.6ft 10s 5s 9 11 mph 1017.5mb 82f 77f
4:40am  -   -   -  7 11 mph 1017.5mb 82f 77f
4:30am  -   -   -  9 11 mph 1017.5mb 82f 77f
4:20am  -   -   -  9 11 mph 1017.4mb 82f 77f
4:10am  -   -   -  9 11 mph 1017.4mb 82f 77f
4:00am  -   -   -  9 11 mph 1017.3mb 82f 77f
3:50am 1.6ft 8s 5s 9 11 mph 1017.4mb 82f 77f
3:40am  -   -   -  7 11 mph 1017.3mb 82f 77f
3:30am  -   -   -  7 11 mph 1017.4mb 82f 77f
3:20am  -   -   -  9 11 mph 1017.4mb 82f 77f
3:10am  -   -   -  9 13 mph 1017.3mb 82f 77f
3:00am  -   -   -  9 11 mph 1017.3mb - 77f
2:50am 2ft 7s 5s 7 11 mph 1017.4mb 82f 77f
2:40am  -   -   -  9 11 mph 1017.3mb 82f 77f
2:30am  -   -   -  7 11 mph 1017.3mb 82f 77f
2:20am  -   -   -  9 11 mph 1017.3mb 82f 77f
2:10am  -   -   -  7 11 mph 1017.3mb 82f 77f
2:00am  -   -   -  9 11 mph 1017.3mb - 77f
1:50am 2ft 8s 5s 9 13 mph 1017.4mb 82f 77f
1:40am  -   -   -  9 13 mph 1017.3mb 82f 77f
1:30am  -   -   -  9 13 mph 1017.3mb 82f 77f
1:20am  -   -   -  9 13 mph 1017.2mb 82f 77f
1:10am  -   -   -  9 13 mph 1017.2mb 82f 77f
1:00am  -   -   -  9 16 mph 1017.1mb 82f 77f
12:50am 1.6ft 8s 5s 9 13 mph 1017.1mb 82f 77f
12:40am 1.6ft  -  5s 11 16 mph 1017.1mb 82f 77f
12:30am  -   -   -  11 16 mph 1017.1mb 82f 77f
12:20am  -   -   -  11 13 mph 1017mb 82f 77f
12:10am  -   -   -  9 13 mph 1017mb 82f 77f
12:00am  -   -   -  9 13 mph 1017mb - 77f
Sat 10/13 11:50pm 1.6ft  -  6s 9 13 mph 1017mb 82f -
11:40pm  -   -   -  9 13 mph 1017mb 82f 77f
11:30pm  -   -   -  9 13 mph 1016.8mb 82f 77f
11:20pm  -   -   -  11 13 mph 1016.7mb 82f 77f
11:10pm  -   -   -  9 13 mph 1016.7mb 82f 77f
11:00pm  -   -   -  9 13 mph 1016.7mb 82f 77f
10:50pm 2ft 8s 6s 9 13 mph 1016.6mb 82f 77f
10:40pm  -   -   -  9 13 mph 1016.6mb 82f 77f
10:30pm  -   -   -  9 13 mph 1016.5mb 82f 77f
10:20pm  -   -   -  9 11 mph 1016.5mb 82f 77f
10:10pm  -   -   -  9 13 mph 1016.4mb 82f 77f
10:00pm  -   -   -  9 13 mph 1016.4mb - 77f
9:50pm 2ft 8s 6s 9 13 mph 1016.4mb 82f 77f
9:40pm  -   -   -  9 11 mph 1016.2mb 82f 77f
9:30pm  -   -   -  9 13 mph 1016.2mb 82f 77f
9:20pm  -   -   -  9 13 mph 1016.2mb 82f 77f
9:10pm  -   -   -  7 11 mph 1015.9mb - 77f
9:00pm  -   -   -  9 11 mph 1015.9mb 82f 77f
8:50pm 2ft 8s 6s 7 11 mph 1015.7mb 82f 77f
8:40pm  -   -   -  7 16 mph 1015.6mb 82f 77f
8:30pm  -   -   -  7 9 mph 1015.5mb 82f 77f
8:20pm  -   -   -  7 11 mph 1015.4mb 82f 77f
8:10pm  -   -   -  7 11 mph 1015mb 82f 77f
8:00pm  -   -   -  7 9 mph 1014.9mb 82f 77f
7:50pm 2ft 7s 5s 7 11 mph 1014.7mb - 77f
7:40pm 2ft  -  5s 7 9 mph 1014.6mb 82f 77f
7:30pm  -   -   -  7 9 mph 1014.4mb 82f 77f
7:20pm  -   -   -  7 9 mph 1014.2mb 82f 77f
7:10pm  -   -   -  7 9 mph 1014.1mb 82f 77f
7:00pm  -   -   -  4 9 mph 1014.1mb 82f 77f
6:20pm  -   -   -  4 7 mph 1013.7mb 82f 77f
6:10pm  -   -   -  4 7 mph 1013.7mb 82f 77f
6:00pm  -   -   -  4 9 mph 1013.7mb 82f -
5:50pm 2.5ft 8s 5s 4 7 mph 1013.6mb 82f 78f
5:40pm  -   -   -  4 7 mph 1013.5mb 82f 77f
5:30pm  -   -   -  4 9 mph 1013.4mb 82f 77f
5:20pm  -   -   -  4 9 mph 1013.5mb 82f 77f
5:10pm  -   -   -  4 9 mph 1013.4mb 82f 77f
5:00pm  -   -   -  4 7 mph 1013.3mb 82f 77f
4:50pm 2ft 8s 5s 4 9 mph 1013.3mb 82f 77f
4:40pm  -   -   -  7 9 mph 1013.2mb 82f 77f
4:30pm  -   -   -  7 9 mph 1013.2mb 82f 77f
4:20pm  -   -   -  7 9 mph 1013.1mb 82f 77f
4:10pm  -   -   -  4 9 mph 1013.1mb 82f 77f
4:00pm  -   -   -  7 9 mph 1013.1mb 82f 77f
3:50pm 2.5ft 8s 5s 4 9 mph 1013.1mb 82f 77f
3:40pm  -   -   -  7 9 mph 1013mb 82f 77f
3:30pm  -   -   -  7 9 mph 1012.9mb 82f 77f
3:20pm  -   -   -  7 9 mph 1012.9mb 82f 77f
3:10pm  -   -   -  7 9 mph 1012.8mb 82f 77f
3:00pm  -   -   -  7 11 mph 1012.7mb - 77f
2:50pm 2.5ft 8s 5s 7 11 mph 1012.8mb 82f 77f
2:40pm 2.5ft  -  5s 9 13 mph 1012.8mb 82f 77f
2:30pm  -   -   -  9 13 mph 1012.9mb 82f 77f
2:20pm  -   -   -  9 11 mph 1012.9mb 82f 76f
2:10pm  -   -   -  9 13 mph 1013mb 82f 76f
2:00pm  -   -   -  9 13 mph 1013mb 82f 76f
1:50pm 2.5ft 8s 5s 9 13 mph 1013.1mb 82f 76f
1:40pm  -   -   -  9 13 mph 1013.2mb 82f 76f
1:30pm  -   -   -  9 13 mph 1013.2mb 82f 76f
1:20pm  -   -   -  9 11 mph 1013.4mb 82f 76f
1:10pm  -   -   -  9 13 mph 1013.5mb 82f 76f
1:00pm  -   -   -  11 13 mph 1013.6mb 82f 76f
12:50pm 2.5ft 8s 5s 11 13 mph 1013.7mb 82f 76f
12:40pm  -   -   -  11 16 mph 1013.8mb 82f 76f
12:30pm  -   -   -  11 16 mph 1013.8mb - 76f
12:20pm  -   -   -  11 13 mph 1013.8mb 82f 76f
12:10pm  -   -   -  9 13 mph 1013.8mb 82f 76f
12:00pm  -   -   -  9 13 mph 1013.8mb 82f 76f
10:50am 2.5ft 8s 5s 7 9 mph 1013.4mb 82f 75f
10:40am  -   -   -  7 11 mph 1013.2mb 82f 75f
10:30am  -   -   -  7 9 mph 1013.2mb - 75f
10:20am  -   -   -  9 11 mph 1013.2mb 82f 75f
10:10am  -   -   -  9 13 mph 1013.2mb 82f 75f
10:00am  -   -   -  9 11 mph 1013.3mb 82f 75f
9:50am 2.5ft 8s 5s 7 11 mph 1013.1mb 82f 75f
9:40am  -   -   -  9 13 mph 1013mb 82f 75f
9:30am  -   -   -  9 11 mph 1013mb 82f 75f
9:20am  -   -   -  9 11 mph 1012.8mb 82f 75f
9:10am  -   -   -  9 13 mph 1012.6mb 82f 75f
9:00am  -   -   -  9 13 mph 1012.7mb 82f -
8:50am 2.5ft 8s 4s 11 18 mph 1012.7mb - 75f
8:40am 2.5ft  -  4s 11 18 mph 1012.6mb 82f 75f
8:30am  -   -   -  11 16 mph 1012.5mb 82f 75f
8:20am  -   -   -  11 16 mph 1012.3mb 82f 75f
8:10am  -   -   -  11 18 mph 1012.3mb 82f 75f
8:00am  -   -   -  16 18 mph 1012.3mb 82f 75f
7:50am 2.5ft 7s 4s 13 18 mph 1012.1mb 82f 75f
7:40am  -   -   -  13 18 mph 1012mb 82f 75f
7:30am  -   -   -  13 18 mph 1011.7mb 82f 75f
7:20am  -   -   -  13 18 mph 1011.5mb 82f 75f
7:10am  -   -   -  16 20 mph 1011.4mb 82f 75f
7:00am  -   -   -  16 20 mph 1011.5mb 82f 75f
6:50am 2.5ft 8s 5s 16 20 mph 1011.5mb 82f 75f
6:40am 2.5ft  -  5s 13 18 mph 1011.3mb 82f 75f
6:30am  -   -   -  16 22 mph 1011mb 82f 75f
6:20am  -   -   -  13 20 mph 1011mb 82f 75f
6:10am  -   -   -  13 20 mph 1010.9mb 82f 75f
6:00am  -   -   -  13 20 mph 1010.8mb - 76f
5:50am 2.5ft 8s 5s 13 20 mph 1010.7mb 82f 75f
5:40am 2.5ft  -  5s 11 16 mph 1010.4mb 82f 75f
5:30am  -   -   -  11 16 mph 1010.1mb 82f 75f
5:20am  -   -   -  13 18 mph 1010.2mb 82f 75f
5:10am  -   -   -  13 20 mph 1010.2mb 82f 76f
5:00am  -   -   -  16 20 mph 1010.1mb 82f 76f
4:50am 2.5ft 8s 5s 13 18 mph 1010.1mb 82f 76f
4:40am 2.5ft  -  5s 13 18 mph 1009.9mb 82f 76f
4:30am  -   -   -  11 18 mph 1009.9mb 82f 76f
4:20am  -   -   -  13 18 mph 1009.9mb 82f 75f
4:10am  -   -   -  9 13 mph 1009.9mb 82f 75f
4:00am  -   -   -  11 16 mph 1009.9mb - 75f
3:20am  -   -   -  11 16 mph 1009.9mb 82f 75f
3:10am  -   -   -  9 13 mph 1009.9mb - 75f
3:00am  -   -   -  11 18 mph 1010mb 82f 76f
2:50am 2.5ft 8s 5s 9 13 mph 1010.2mb 82f 75f
2:40am 2.5ft  -  5s 9 13 mph 1010.2mb 82f 75f
2:30am  -   -   -  11 16 mph 1010.2mb 82f 76f
2:20am  -   -   -  11 16 mph 1010.3mb 82f 76f
2:10am  -   -   -  11 16 mph 1010.3mb - 76f
2:00am  -   -   -  13 16 mph 1010.4mb - 76f
1:50am 2.5ft 8s 6s 13 18 mph 1010.3mb 82f 76f
1:40am  -   -   -  13 16 mph 1010.4mb 82f 76f
1:30am  -   -   -  13 18 mph 1010.3mb 82f 76f
1:20am  -   -   -  11 16 mph 1010.2mb 82f 76f
1:10am  -   -   -  11 18 mph 1010.3mb 82f 76f
1:00am  -   -   -  9 13 mph 1010.3mb 82f 75f
12:50am 2.5ft 8s 6s 9 13 mph 1010.3mb 82f 75f
12:40am  -   -   -  9 11 mph 1010.4mb 82f 75f
12:30am  -   -   -  7 11 mph 1010.4mb 82f 75f
12:20am  -   -   -  7 11 mph 1010.4mb 82f 75f
12:10am  -   -   -  9 13 mph 1010.5mb 82f 75f
12:00am  -   -   -  7 9 mph 1010.6mb 82f 75f
Fri 10/12 11:10pm  -   -   -  7 9 mph 1010.8mb 82f 75f
11:00pm  -   -   -  7 9 mph 1010.7mb 82f 75f
10:50pm 2.5ft 8s 6s 7 9 mph 1010.8mb 82f 74f
10:40pm  -   -   -  7 11 mph 1010.8mb - 75f
10:30pm  -   -   -  7 11 mph 1010.8mb 82f 75f
10:20pm  -   -   -  4 9 mph 1010.7mb 82f 74f
10:10pm  -   -   -  7 9 mph 1010.7mb 82f 74f
10:00pm  -   -   -  7 11 mph 1010.7mb 82f 74f
9:20pm  -   -   -  7 9 mph 1010.3mb 82f 74f
9:10pm  -   -   -  7 9 mph 1010.2mb 82f 74f
9:00pm  -   -   -  7 9 mph 1010.1mb 82f 74f
8:50pm 2.5ft 8s 6s 7 9 mph 1010.1mb 82f 74f
8:40pm  -   -   -  7 9 mph 1010.1mb 82f 74f
8:30pm  -   -   -  7 9 mph 1010mb 82f 74f
8:20pm  -   -   -  7 11 mph 1009.9mb 82f 74f
8:10pm  -   -   -  4 9 mph 1009.9mb 82f 74f
8:00pm  -   -   -  7 9 mph 1009.8mb - 74f
7:50pm 2.5ft 8s 5s 4 9 mph 1009.7mb 82f 74f
7:40pm 2.5ft  -  5s 4 9 mph 1009.6mb 82f 73f
7:30pm  -   -   -  4 11 mph 1009.5mb 82f 73f
7:20pm  -   -   -  4 7 mph 1009.4mb 82f 73f
7:10pm  -   -   -  4 7 mph 1009.4mb 82f 73f
7:00pm  -   -   -  2 4 mph 1009.4mb 82f 73f
6:50pm 2.5ft 8s 5s 2 4 mph 1009.5mb 82f 74f
6:40pm  -   -   -  2 2 mph 1009.6mb 82f 74f
6:30pm  -   -   -   -  2 mph 1009.6mb 82f 75f
6:20pm  -   -   -   -  2 mph 1009.5mb 82f 75f
6:10pm  -   -   -  2 4 mph 1009.4mb 82f 74f
6:00pm  -   -   -  2 4 mph 1009.5mb 82f 74f
5:50pm 2.5ft 8s 5s 2 7 mph 1009.6mb 82f 74f
5:40pm  -   -   -  4 7 mph 1009.7mb 82f 74f
5:30pm  -   -   -  2 7 mph 1009.7mb 82f 74f
5:20pm  -   -   -  2 4 mph 1009.6mb 82f 74f
5:10pm  -   -   -  2 4 mph 1009.5mb 82f 74f
5:00pm  -   -   -  2 4 mph 1009.3mb 82f 74f
4:50pm 3ft 5s 5s 2 4 mph 1009.1mb 82f 75f
4:40pm 3ft  -  5s  -  2 mph 1009mb 82f 74f
4:30pm  -   -   -  2 4 mph 1009.1mb 82f 74f
4:20pm  -   -   -  2 4 mph 1009.4mb 82f 74f
4:10pm  -   -   -  4 7 mph 1009.5mb 82f 73f
4:00pm  -   -   -   -  4 mph 1009.4mb 82f 74f
3:50pm 3.5ft 5s 5s 2 4 mph 1009.3mb 82f 73f
3:40pm  -   -   -  2 4 mph 1009.4mb 82f 73f
3:30pm  -   -   -  2 4 mph 1009.2mb 82f 73f
3:20pm  -   -   -  2 7 mph 1009.2mb 82f 73f
3:10pm  -   -   -  2 4 mph 1009.3mb 82f 73f
3:00pm  -   -   -  4 7 mph 1009.3mb - 73f
2:50pm 3.5ft 5s 5s 2 4 mph 1009.4mb 82f 73f
2:40pm  -   -   -  2 7 mph 1009.5mb 82f 73f
2:30pm  -   -   -  4 7 mph 1009.6mb 82f 72f
2:20pm  -   -   -  4 7 mph 1009.9mb 82f 72f
2:10pm  -   -   -  4 7 mph 1009.8mb 82f 72f
2:00pm  -   -   -  4 7 mph 1009.9mb 82f 72f
1:50pm 3.5ft 5s 5s 4 9 mph 1010.1mb 82f 72f
1:40pm 3.5ft  -  5s 4 9 mph 1010.1mb 82f 72f
1:30pm  -   -   -  7 11 mph 1010.2mb 82f 72f
1:20pm  -   -   -  7 13 mph 1010.5mb 82f 71f
1:10pm  -   -   -  9 13 mph 1010.5mb 82f 71f
1:00pm  -   -   -  9 13 mph 1010.4mb 82f 71f
12:50pm 4ft 5s 5s 9 13 mph 1010.3mb 82f 71f
12:40pm  -   -   -  9 13 mph 1010.5mb 82f 71f
12:30pm  -   -   -  11 16 mph 1010.5mb 82f 71f
12:20pm  -   -   -  11 18 mph 1010.5mb 82f 71f
12:10pm  -   -   -  11 18 mph 1010.5mb 82f 71f
12:00pm  -   -   -  13 18 mph 1010.7mb 82f 71f
11:50am 4.5ft 5s 5s 13 18 mph 1010.5mb 82f 71f
11:40am 4.5ft  -  5s 13 20 mph 1010.6mb 82f 71f
11:30am  -   -   -  16 20 mph 1010.8mb 82f 71f
11:20am  -   -   -  16 22 mph 1010.8mb 82f 71f
11:10am  -   -   -  18 25 mph 1010.8mb 82f 71f
11:00am  -   -   -  16 22 mph 1010.8mb 82f 71f
10:50am 4.5ft 5s 5s 16 20 mph 1010.7mb 82f 71f
10:40am  -   -   -  16 22 mph 1010.6mb 82f 71f
10:30am  -   -   -  16 20 mph 1010.5mb 82f 71f
10:20am  -   -   -  16 20 mph 1010.5mb 82f 71f
10:10am  -   -   -  16 20 mph 1010.5mb 82f 71f
10:00am  -   -   -  16 22 mph 1010.6mb 82f 71f
9:50am 4.5ft 5s 5s 16 22 mph 1010.8mb 82f 71f
9:40am  -   -   -  18 22 mph 1010.8mb 82f 71f
9:30am  -   -   -  18 25 mph 1010.8mb 82f 71f
9:20am  -   -   -  18 22 mph 1010.6mb 82f 71f
9:10am  -   -   -  18 22 mph 1010.4mb 82f 71f
9:00am  -   -   -  18 25 mph 1010.4mb 82f 71f
8:50am 4.5ft 5s 5s 18 22 mph 1010.4mb 82f 72f
8:40am  -   -   -  18 25 mph 1010.3mb 82f 72f
8:30am  -   -   -  18 25 mph 1010.2mb 82f 72f
8:20am  -   -   -  18 22 mph 1010mb 82f 72f
8:10am  -   -   -  18 22 mph 1010mb 82f 72f
8:00am  -   -   -  16 22 mph 1009.7mb 82f 73f
7:50am 4.5ft 8s 5s 18 22 mph 1009.6mb 82f 73f
7:40am 4.5ft  -  5s 18 25 mph 1009.6mb - 74f
7:30am  -   -   -  18 22 mph 1009.4mb 82f 74f
7:20am  -   -   -  18 22 mph 1009.2mb 82f 74f
7:10am  -   -   -  16 22 mph 1009.1mb 82f 74f
7:00am  -   -   -  16 20 mph 1009.3mb 82f 74f
6:50am 4.5ft 7s 5s 16 18 mph 1009.2mb 82f 74f
6:40am 4.5ft  -  5s 13 18 mph 1009.1mb 82f 74f
6:30am  -   -   -  16 20 mph 1009mb 82f 75f
6:20am  -   -   -  13 20 mph 1008.9mb 82f 76f
6:10am  -   -   -  13 20 mph 1008.7mb - 76f
6:00am  -   -   -  13 20 mph 1008.5mb 82f 76f
5:50am 4.5ft 8s 5s 16 20 mph 1008.4mb 82f 76f
5:40am 4.5ft  -  5s 16 20 mph 1008.4mb 82f 77f
5:30am  -   -   -  18 22 mph 1008.3mb 82f 77f
5:20am  -   -   -  18 22 mph 1008.2mb 82f 77f
5:10am  -   -   -  16 20 mph 1008mb 82f 78f
5:00am  -   -   -  16 20 mph 1007.8mb 82f 78f
4:50am 5ft 7s 5s 13 18 mph 1007.8mb 82f 78f
4:40am  -   -   -  13 18 mph 1007.7mb 82f 78f
4:30am  -   -   -  13 18 mph 1007.7mb 82f 78f
4:20am  -   -   -  16 18 mph 1007.7mb 82f 79f
4:10am  -   -   -  16 18 mph 1007.7mb 82f 79f
4:00am  -   -   -  16 20 mph 1007.6mb 82f 79f
3:50am 5ft 8s 5s 16 20 mph 1007.5mb 82f 79f
3:40am 5ft  -  5s 16 20 mph 1007.4mb 82f 79f
3:30am  -   -   -  16 20 mph 1007.4mb 82f 79f
3:20am  -   -   -  16 20 mph 1007.4mb 82f 80f
3:10am  -   -   -  16 20 mph 1007.4mb 82f 80f
3:00am  -   -   -  16 20 mph 1007.4mb 82f 80f
2:20am  -   -   -  18 22 mph 1007.3mb 82f 80f
2:10am  -   -   -  18 22 mph 1007.3mb 82f 80f
2:00am  -   -   -  20 25 mph 1007.1mb 82f 81f
1:50am 5ft 6s 5s 20 25 mph 1007.2mb 82f 81f
1:40am  -   -   -  20 25 mph 1007.1mb 82f 81f
1:30am  -   -   -  20 25 mph 1007.1mb 82f 81f
1:20am  -   -   -  20 27 mph 1007.1mb 82f 81f
1:10am  -   -   -  20 25 mph 1007.1mb 82f 82f
1:00am  -   -   -  20 25 mph 1007.1mb 82f 82f
12:50am 5.5ft  -  5s 20 25 mph 1007mb 82f 82f
12:40am 5.5ft 6s 5s  -  mph - - -
12:30am  -   -   -  22 29 mph 1007.1mb - 82f
12:20am  -   -   -  22 31 mph 1007.1mb 82f 83f
12:10am  -   -   -  22 27 mph 1007.1mb 82f 83f
12:00am  -   -   -  22 29 mph 1007.1mb 82f 83f
Thu 10/11 11:50pm 6ft 8s 5s 22 27 mph 1007.1mb 82f 83f
11:40pm 6ft  -  5s 22 29 mph 1007.1mb 82f 83f
11:30pm  -   -   -  22 27 mph 1007mb 82f 83f
11:20pm  -   -   -  22 27 mph 1007mb 82f 83f
11:10pm  -   -   -  20 25 mph 1006.9mb 82f 83f
11:00pm  -   -   -  20 27 mph 1007mb 82f 83f
10:50pm 6ft 7s 5s 20 25 mph 1007.1mb 82f 83f
10:40pm  -   -   -  20 25 mph 1007.1mb 82f 83f
10:30pm  -   -   -  18 22 mph 1007.1mb 82f 83f
10:20pm  -   -   -  18 22 mph 1007.1mb 82f 83f
10:10pm  -   -   -  18 22 mph 1007mb - 83f
10:00pm  -   -   -  18 22 mph 1006.9mb 82f -
9:50pm 7ft 7s 6s 18 25 mph 1006.7mb 82f 83f
9:40pm  -   -   -  18 22 mph 1006.8mb 82f 83f
9:30pm  -   -   -  18 22 mph 1006.7mb 82f 83f
9:20pm  -   -   -  20 25 mph 1006.6mb 82f 83f
9:10pm  -   -   -  20 25 mph 1006.5mb 82f 83f
9:00pm  -   -   -  20 25 mph 1006.4mb 82f 83f
8:50pm 7ft 7s 6s 18 22 mph 1006.2mb 82f 83f
8:40pm  -   -   -  18 22 mph 1006.1mb 82f 83f
8:30pm  -   -   -  18 25 mph 1006mb 82f 83f
8:20pm  -   -   -  20 22 mph 1005.9mb 82f 84f
8:10pm  -   -   -  18 22 mph 1005.9mb 82f 84f